Fort Yukon, AK

3:43 AM AKDT on April 29, 2017 (GMT -0800)
Fort Yukon

Weather History for PFYU - January, 2012

Change the Weather History Date:

Tuesday, January 3, 2012

  Actual Average Record
Temperature  
Mean Temperature -32 °F -  
Max Temperature -25 °F -11 °F 30 °F (2016)
Min Temperature -38 °F -23 °F -59 °F (1997)
Degree Days  
Heating Degree Days 96    
Moisture  
Dew Point -    
Average Humidity    
Maximum Humidity    
Minimum Humidity    
Precipitation  
Precipitation 0.00 in - - ()
Sea Level Pressure  
Sea Level Pressure 29.74 in    
Wind  
Wind Speed 0 mph (NE)    
Max Wind Speed 4 mph    
Max Gust Speed -    
Visibility 9 miles    
Events      
Averages and records for this station are not official NWS values.
T = Trace of Precipitation, MM = Missing Value Source: NWS Daily Summary

Daily Weather History Graph

Daily Weather History Graph

Search for Another Location

Airport or City:

Trip Planner

Search our weather history database for the weather conditions in past years. The results will help you decide how hot, cold, wet, or windy it might be!

Date:

Astronomy

Jan. 03, 2012 Rise Set
Actual Time 11:19 AM AKST 2:11 PM AKST
Civil Twilight 9:38 AM AKST 3:52 PM AKST
Nautical Twilight 8:20 AM AKST 5:10 PM AKST
Astronomical Twilight 7:14 AM AKST 6:16 PM AKST
Moon 11:09 AM AKST (1/3) 5:07 AM AKST (1/3)
Length of Visible Light 6h 14m
Length of Day
2h 51m
Waxing Gibbous, 74% of the Moon is Illuminated
Jan 3
Waxing Gibbous
Jan 8
Full
Jan 16
Last Quarter
Jan 22
New
Jan 30
First Quarter

Hourly Weather History & Observations

Time (AKST) Temp. Windchill Dew Point Humidity Pressure Visibility Wind Dir Wind Speed Gust Speed Precip Events Conditions
12:16 AM -32.8 °F - - N/A% 29.71 in 4.0 mi Calm Calm - N/A   Clear
12:36 AM -32.8 °F - - N/A% 29.72 in 5.0 mi Calm Calm - N/A   Clear
12:56 AM -32.8 °F - - N/A% 29.72 in 5.0 mi Calm Calm - N/A   Clear
1:16 AM -32.8 °F - - N/A% 29.73 in 3.0 mi Calm Calm - N/A   Clear
1:36 AM -32.8 °F - - N/A% 29.73 in 5.0 mi Calm Calm - N/A   Clear
1:56 AM -29.2 °F - - N/A% 29.73 in 8.0 mi Calm Calm - N/A   Clear
2:16 AM -34.6 °F - - N/A% 29.74 in 8.0 mi Calm Calm - N/A   Clear
2:36 AM -34.6 °F - - N/A% 29.74 in 6.0 mi Calm Calm - N/A   Clear
2:56 AM -32.8 °F - - N/A% 29.75 in 9.0 mi Calm Calm - N/A   Clear
3:16 AM -32.8 °F - - N/A% 29.75 in 6.0 mi Calm Calm - N/A   Clear
3:36 AM -25.6 °F - - N/A% 29.75 in 10.0 mi Calm Calm - N/A   Clear
3:56 AM -27.4 °F - - N/A% 29.75 in 10.0 mi Calm Calm - N/A   Clear
4:16 AM -29.2 °F - - N/A% 29.75 in 10.0 mi Calm Calm - N/A   Clear
4:36 AM -31.0 °F - - N/A% 29.75 in 10.0 mi Calm Calm - N/A   Clear
4:56 AM -32.8 °F - - N/A% 29.75 in 10.0 mi Calm Calm - N/A   Clear
5:16 AM -34.6 °F - - N/A% 29.75 in 9.0 mi Calm Calm - N/A   Clear
5:36 AM -32.8 °F - - N/A% 29.75 in 10.0 mi Calm Calm - N/A   Clear
5:56 AM -34.6 °F - - N/A% 29.75 in 10.0 mi Calm Calm - N/A   Clear
6:16 AM -38.2 °F - - N/A% 29.75 in 7.0 mi Calm Calm - N/A   Clear
6:36 AM -34.6 °F - - N/A% 29.75 in 10.0 mi Calm Calm - N/A   Clear
6:56 AM -34.6 °F - - N/A% 29.75 in 10.0 mi Calm Calm - N/A   Clear
7:16 AM -38.2 °F - - N/A% 29.76 in 5.0 mi Calm Calm - N/A   Clear
7:36 AM -36.4 °F - - N/A% 29.75 in 7.0 mi Calm Calm - N/A   Clear
7:56 AM -36.4 °F - - N/A% 29.75 in 10.0 mi Calm Calm - N/A   Clear
8:16 AM -38.2 °F - - N/A% 29.75 in 7.0 mi Calm Calm - N/A   Clear
8:36 AM -36.4 °F - - N/A% 29.75 in 6.0 mi Calm Calm - N/A   Clear
8:56 AM -38.2 °F - - N/A% 29.76 in 6.0 mi Calm Calm - N/A   Clear
9:16 AM -38.2 °F - - N/A% 29.75 in 10.0 mi Calm Calm - N/A   Clear
9:36 AM -38.2 °F - - N/A% 29.75 in 10.0 mi Calm Calm - N/A   Clear
9:56 AM -38.2 °F - - N/A% 29.75 in 10.0 mi Calm Calm - N/A   Clear
10:16 AM -38.2 °F - - N/A% 29.75 in 10.0 mi Calm Calm - N/A   Clear
10:36 AM -38.2 °F - - N/A% 29.75 in 10.0 mi Calm Calm - N/A   Clear
10:56 AM -38.2 °F - - N/A% 29.75 in 10.0 mi Calm Calm - N/A   Clear
11:16 AM -38.2 °F - - N/A% 29.75 in 10.0 mi Calm Calm - N/A   Clear
11:36 AM -38.2 °F - - N/A% 29.75 in 10.0 mi Calm Calm - N/A   Clear
11:56 AM -38.2 °F - - N/A% 29.74 in 10.0 mi Calm Calm - N/A   Clear
12:16 PM -36.4 °F - - N/A% 29.74 in 10.0 mi Calm Calm - N/A   Clear
12:36 PM -36.4 °F - - N/A% 29.74 in 10.0 mi Calm Calm - N/A   Clear
12:56 PM -36.4 °F -49.4 °F - N/A% 29.74 in 10.0 mi ENE 3.5 mph - N/A   Clear
1:16 PM -36.4 °F - - N/A% 29.74 in 10.0 mi Calm Calm - N/A   Clear
1:36 PM -36.4 °F - - N/A% 29.74 in 10.0 mi Calm Calm - N/A   Clear
1:56 PM -38.2 °F -51.5 °F - N/A% 29.74 in 10.0 mi NE 3.5 mph - N/A   Clear
2:16 PM -34.6 °F -47.4 °F - N/A% 29.73 in 10.0 mi NE 3.5 mph - N/A   Clear
2:36 PM -34.6 °F - - N/A% 29.73 in 10.0 mi Calm Calm - N/A   Clear
2:56 PM -34.6 °F - - N/A% 29.73 in 10.0 mi Calm Calm - N/A   Clear
3:16 PM -34.6 °F - - N/A% 29.72 in 10.0 mi Calm Calm - N/A   Clear
3:36 PM -36.4 °F - - N/A% 29.72 in 10.0 mi Calm Calm - N/A   Clear
3:56 PM -34.6 °F -47.4 °F - N/A% 29.72 in 10.0 mi NNE 3.5 mph - N/A   Clear
4:16 PM -34.6 °F - - N/A% 29.72 in 10.0 mi Calm Calm - N/A   Clear
4:36 PM -34.6 °F - - N/A% 29.72 in 10.0 mi Calm Calm - N/A   Clear
4:56 PM -36.4 °F - - N/A% 29.72 in 9.0 mi Calm Calm - N/A   Clear
5:16 PM -36.4 °F - - N/A% 29.72 in 9.0 mi Calm Calm - N/A   Clear
5:36 PM -36.4 °F - - N/A% 29.72 in 9.0 mi Calm Calm - N/A   Clear
5:56 PM -38.2 °F - - N/A% 29.72 in 9.0 mi Calm Calm - N/A   Clear
6:16 PM -38.2 °F - - N/A% 29.72 in 3.0 mi Calm Calm - N/A   Clear
6:36 PM -36.4 °F - - N/A% 29.72 in 5.0 mi Calm Calm - N/A   Clear
6:56 PM -38.2 °F - - N/A% 29.71 in 7.0 mi Calm Calm - N/A   Clear
7:16 PM -38.2 °F - - N/A% 29.70 in 4.0 mi Calm Calm - N/A   Clear
7:36 PM -38.2 °F - - N/A% 29.70 in 10.0 mi Calm Calm - N/A   Clear
7:56 PM -38.2 °F - - N/A% 29.70 in 10.0 mi Calm Calm - N/A   Clear
8:16 PM -38.2 °F - - N/A% 29.69 in 10.0 mi Calm Calm - N/A   Scattered Clouds
8:36 PM -36.4 °F - - N/A% 29.69 in 10.0 mi Calm Calm - N/A   Partly Cloudy
8:56 PM -34.6 °F - - N/A% 29.69 in 10.0 mi Calm Calm - N/A   Partly Cloudy
9:16 PM -34.6 °F - - N/A% 29.68 in 10.0 mi Calm Calm - N/A   Mostly Cloudy
9:36 PM -32.8 °F - - N/A% 29.67 in 10.0 mi Calm Calm - N/A   Overcast
9:56 PM -29.2 °F - - N/A% 29.66 in 10.0 mi Calm Calm - N/A   Overcast
10:16 PM -27.4 °F - -27.4 °F 100% 29.66 in 10.0 mi Calm Calm - N/A   Overcast
10:36 PM -27.4 °F - - N/A% 29.65 in 10.0 mi Calm Calm - N/A   Overcast
10:56 PM -27.4 °F - - N/A% 29.65 in 10.0 mi Calm Calm - N/A   Overcast
11:16 PM -25.6 °F - - N/A% 29.64 in 10.0 mi Calm Calm - N/A   Overcast
11:36 PM -25.6 °F - - N/A% 29.63 in 10.0 mi Calm Calm - N/A   Overcast
11:56 PM -23.8 °F - - N/A% 29.63 in 10.0 mi Calm Calm - N/A   Overcast